Weather History for KUIL - August, 2012

Change the Weather History Date:

Friday, August 3, 2012

  Actual Average Record
Temperature  
Mean Temperature 66 °F 60 °F  
Max Temperature 80 °F 69 °F 94 °F (1993)
Min Temperature 52 °F 51 °F 42 °F (1999)
Degree Days  
Heating Degree Days 0 5  
Month to date heating degree days 15  
Since 1 June heating degree days 503  
Since 1 July heating degree days 209  
Cooling Degree Days 1 0  
Month to date cooling degree days 0  
Year to date cooling degree days 11  
Since 1 June cooling degree days 10  
Growing Degree Days 16 (Base 50)    
Moisture  
Dew Point 53 °F    
Average Humidity 79    
Maximum Humidity 96    
Minimum Humidity 36    
Precipitation  
Precipitation 0.00 in 0.05 in 0.34 in (2001)
Month to date precipitation 0.17  
Year to date precipitation 54.40  
Sea Level Pressure  
Sea Level Pressure 30.09 in    
Wind  
Wind Speed 5 mph (NNW)    
Max Wind Speed 16 mph    
Max Gust Speed 21 mph    
Visibility 6 miles    
Events Fog    
T = Trace of Precipitation, MM = Missing Value Source: NWS Daily Summary

Daily Weather History Graph

Daily Weather History Graph

Search for Another Location

Airport or City:

Trip Planner

Search our weather history database for the weather conditions in past years. The results will help you decide how hot, cold, wet, or windy it might be!

Date:

Astronomy

Aug. 03, 2012 Rise Set
Actual Time 5:57 AM PDT 8:49 PM PDT
Civil Twilight 5:22 AM PDT 9:25 PM PDT
Nautical Twilight 4:35 AM PDT 10:11 PM PDT
Astronomical Twilight 3:40 AM PDT 11:06 PM PDT
Moon 9:15 PM PDT (8/3) 8:00 AM PDT (8/3)
Length of Visible Light 16h 03m
Length of Day
14h 51m
Full, 97% of the Moon is Illuminated
Aug 3
Full
Aug 9
Last Quarter
Aug 17
New
Aug 24
First Quarter
Aug 31
Full

Hourly Weather History & Observations

Time (PDT) Temp. Dew Point Humidity Pressure Visibility Wind Dir Wind Speed Gust Speed Precip Events Conditions
12:53 AM 55.0 °F 51.1 °F 86% 30.15 in 10.0 mi NNW 3.5 mph - N/A   Overcast
1:53 AM 55.0 °F 51.1 °F 86% 30.14 in 10.0 mi Calm Calm - N/A   Overcast
2:53 AM 54.0 °F 52.0 °F 93% 30.13 in 10.0 mi Calm Calm - N/A   Overcast
3:14 AM 53.6 °F 51.8 °F 94% 30.13 in 10.0 mi NE 3.5 mph - N/A   Overcast
3:42 AM 53.6 °F 51.8 °F 94% 30.12 in 1.8 mi Calm Calm - N/A   Overcast
3:53 AM 53.1 °F 51.1 °F 93% 30.13 in 1.2 mi Calm Calm - N/A   Overcast
4:19 AM 53.6 °F 51.8 °F 94% 30.12 in 1.5 mi North 3.5 mph - N/A   Overcast
4:26 AM 53.6 °F 51.8 °F 94% 30.12 in 1.2 mi Calm Calm - N/A   Overcast
4:39 AM 53.6 °F 51.8 °F 94% 30.12 in 2.0 mi North 4.6 mph - N/A   Overcast
4:48 AM 53.6 °F 51.8 °F 94% 30.11 in 4.0 mi Calm Calm - N/A   Overcast
4:53 AM 53.1 °F 51.1 °F 93% 30.12 in 4.0 mi NNE 3.5 mph - N/A   Overcast
4:58 AM 53.6 °F 51.8 °F 94% 30.12 in 1.8 mi Calm Calm - N/A   Overcast
5:08 AM 53.6 °F 51.8 °F 94% 30.12 in 1.0 mi North 3.5 mph - N/A   Overcast
5:28 AM 53.6 °F 51.8 °F 94% 30.12 in 0.5 mi NE 4.6 mph - N/A Fog Fog
5:53 AM 53.1 °F 51.1 °F 93% 30.12 in 0.5 mi East 3.5 mph - N/A Fog Fog
6:26 AM 53.6 °F 51.8 °F 94% 30.12 in 0.2 mi Calm Calm - N/A Fog Fog
6:53 AM 53.1 °F 51.1 °F 93% 30.13 in 0.2 mi Calm Calm - N/A Fog Fog
7:53 AM 53.1 °F 52.0 °F 96% 30.13 in 0.5 mi Calm Calm - N/A Fog Fog
8:08 AM 53.6 °F 51.8 °F 94% 30.13 in 1.2 mi Calm Calm - N/A   Overcast
8:36 AM 53.6 °F 51.8 °F 94% 30.14 in 2.5 mi Calm Calm - N/A   Overcast
8:44 AM 55.4 °F 51.8 °F 88% 30.13 in 4.0 mi Calm Calm - N/A   Overcast
8:53 AM 55.0 °F 52.0 °F 89% 30.14 in 4.0 mi Calm Calm - N/A   Overcast
9:45 AM 60.8 °F 53.6 °F 77% 30.12 in 10.0 mi Calm Calm - N/A   Scattered Clouds
9:53 AM 61.0 °F 55.0 °F 81% 30.13 in 10.0 mi Variable 3.5 mph - N/A   Partly Cloudy
10:53 AM 66.0 °F 57.0 °F 73% 30.12 in 10.0 mi WSW 5.8 mph - N/A   Clear
11:53 AM 66.0 °F 55.9 °F 70% 30.12 in 10.0 mi WSW 8.1 mph - N/A   Clear
12:53 PM 68.0 °F 57.2 °F 68% 30.10 in 10.0 mi WSW 9.2 mph - N/A   Clear
1:53 PM 70.0 °F 55.9 °F 61% 30.09 in 10.0 mi SW 11.5 mph - N/A   Clear
2:53 PM 69.1 °F 55.9 °F 63% 30.07 in 10.0 mi WSW 9.2 mph - N/A   Clear
3:53 PM 70.0 °F 55.0 °F 59% 30.06 in 10.0 mi SW 6.9 mph - N/A   Clear
4:53 PM 78.1 °F 55.9 °F 46% 30.03 in 10.0 mi NW 12.7 mph - N/A   Clear
5:53 PM 77.0 °F 55.0 °F 47% 30.01 in 10.0 mi NNW 10.4 mph - N/A   Clear
6:53 PM 73.9 °F 55.0 °F 52% 30.00 in 10.0 mi NNW 12.7 mph - N/A   Clear
7:53 PM 69.1 °F 53.1 °F 57% 29.99 in 10.0 mi NNW 10.4 mph - N/A   Clear
8:53 PM 66.9 °F 53.1 °F 61% 29.99 in 10.0 mi North 10.4 mph - N/A   Clear
9:34 PM 64.4 °F 53.6 °F 68% 29.99 in 10.0 mi North 9.2 mph - N/A   Partly Cloudy
9:53 PM 64.0 °F 53.1 °F 67% 29.99 in 10.0 mi North 8.1 mph - N/A   Clear
10:53 PM 63.0 °F 53.1 °F 70% 29.98 in 10.0 mi Calm Calm - N/A   Clear
11:53 PM 59.0 °F 53.1 °F 81% 29.97 in 10.0 mi Calm Calm - N/A   Clear